START_TIME,STEP,MOV.,AL01,t_acc.,AL02,t_acc.,E37,t_acc.,H21,t_acc.
1980-11-13 18:00:22.860 ,6,0,0.,24.0,0.,24.0,0.,24.0,0.,24.0
1980-11-13 18:00:46.860 ,7,1,1.,24.0,0.,24.0,0.,24.0,0.,24.0
1980-11-13 18:01:10.860 ,7,0,11.,24.0,0.,24.0,0.,24.0,0.,24.0
1980-11-13 18:01:34.860 ,7,1,8.,24.0,0.,24.0,0.,24.0,0.,24.0
1980-11-13 18:01:58.860 ,7,0,9.,24.0,0.,24.0,0.,24.0,0.,24.0
1980-11-13 18:02:22.860 ,6,1,10.,24.0,0.,24.0,0.,24.0,0.,24.0
1980-11-13 18:02:46.860 ,6,0,0.,24.0,0.,24.0,0.,24.0,0.,24.0
1980-11-13 18:03:10.860 ,5,1,0.,24.0,0.,24.0,0.,24.0,0.,24.0
1980-11-13 18:03:34.860 ,5,0,0.,24.0,0.,24.0,0.,24.0,0.,24.0
1980-11-13 18:03:58.860 ,4,1,0.,24.0,0.,24.0,0.,24.0,0.,24.0
1980-11-13 18:04:22.860 ,4,0,0.,24.0,0.,24.0,0.,24.0,0.,24.0
1980-11-13 18:04:46.860 ,3,1,1.,24.0,0.,24.0,0.,24.0,0.,24.0
1980-11-13 18:05:10.860 ,3,0,0.,24.0,0.,24.0,0.,24.0,0.,24.0
1980-11-13 18:05:34.860 ,2,1,0.,24.0,0.,24.0,0.,24.0,0.,24.0
1980-11-13 18:05:58.860 ,2,0,0.,24.0,0.,24.0,0.,24.0,0.,24.0
1980-11-13 18:06:22.860 ,1,1,0.,24.0,0.,24.0,0.,24.0,0.,24.0
1980-11-13 18:06:46.860 ,1,0,0.,24.0,0.,24.0,0.,24.0,0.,24.0
1980-11-13 18:07:10.860 ,0,1,0.,24.0,0.,24.0,0.,24.0,0.,24.0
1980-11-13 18:07:34.860 ,0,0,0.,24.0,0.,24.0,0.,24.0,0.,24.0
1980-11-13 18:07:58.860 ,0,1,0.,24.0,0.,24.0,0.,24.0,0.,24.0
1980-11-13 18:08:22.860 ,0,0,0.,24.0,0.,24.0,0.,24.0,0.,24.0
1980-11-13 18:08:46.860 ,1,1,0.,24.0,0.,24.0,0.,24.0,0.,24.0
1980-11-13 18:09:10.860 ,1,0,0.,24.0,0.,24.0,0.,24.0,0.,24.0
1980-11-13 18:09:34.860 ,2,1,0.,24.0,0.,24.0,0.,24.0,0.,24.0
1980-11-13 18:09:58.860 ,2,0,0.,24.0,0.,24.0,0.,24.0,0.,24.0
1980-11-13 18:10:22.860 ,3,1,0.,24.0,0.,24.0,0.,24.0,0.,24.0
1980-11-13 18:10:46.860 ,3,0,0.,24.0,0.,24.0,0.,24.0,0.,24.0
1980-11-13 18:11:10.860 ,4,1,0.,24.0,0.,24.0,0.,24.0,0.,24.0
1980-11-13 18:11:34.860 ,4,0,0.,24.0,0.,24.0,0.,24.0,0.,24.0
1980-11-13 18:11:58.860 ,5,1,0.,24.0,0.,24.0,0.,24.0,0.,24.0
1980-11-13 18:12:22.860 ,5,0,0.,24.0,0.,24.0,0.,24.0,0.,24.0
1980-11-13 18:12:46.860 ,6,1,0.,24.0,0.,24.0,0.,24.0,0.,24.0
1980-11-13 18:13:10.860 ,6,0,0.,24.0,0.,24.0,0.,24.0,0.,24.0
1980-11-13 18:13:34.860 ,7,1,1.,24.0,0.,24.0,0.,24.0,0.,24.0
1980-11-13 18:13:58.860 ,7,0,7.,24.0,0.,24.0,0.,24.0,0.,24.0
1980-11-13 18:14:22.860 ,7,1,13.,24.0,0.,24.0,0.,24.0,0.,24.0
1980-11-13 18:14:46.860 ,7,0,4.,24.0,0.,24.0,0.,24.0,0.,24.0
1980-11-13 18:15:10.860 ,6,1,6.,24.0,0.,24.0,0.,24.0,0.,24.0
1980-11-13 18:15:34.860 ,6,0,0.,24.0,0.,24.0,0.,24.0,0.,24.0
1980-11-13 18:15:58.860 ,5,1,0.,24.0,0.,24.0,0.,24.0,0.,24.0
1980-11-13 18:16:22.860 ,5,0,0.,24.0,0.,24.0,0.,24.0,0.,24.0
1980-11-13 18:16:46.860 ,4,1,0.,24.0,0.,24.0,0.,24.0,0.,24.0
1980-11-13 18:17:10.860 ,4,0,0.,24.0,0.,24.0,0.,24.0,0.,24.0
1980-11-13 18:17:34.860 ,3,1,0.,24.0,0.,24.0,0.,24.0,0.,24.0
1980-11-13 18:17:58.860 ,3,0,0.,24.0,0.,24.0,0.,24.0,0.,24.0
1980-11-13 18:18:22.860 ,2,1,0.,24.0,0.,24.0,0.,24.0,0.,24.0
1980-11-13 18:18:46.860 ,2,0,0.,24.0,0.,24.0,0.,24.0,0.,24.0
1980-11-13 18:19:10.860 ,1,1,0.,24.0,0.,24.0,0.,24.0,0.,24.0
1980-11-13 18:19:34.860 ,1,0,0.,24.0,0.,24.0,0.,24.0,0.,24.0
1980-11-13 18:19:58.860 ,0,1,0.,24.0,0.,24.0,0.,24.0,0.,24.0
1980-11-13 18:20:22.860 ,0,0,0.,24.0,0.,24.0,0.,24.0,0.,24.0
1980-11-13 18:20:46.860 ,0,1,0.,24.0,0.,24.0,0.,24.0,0.,24.0
1980-11-13 18:21:10.860 ,0,0,0.,24.0,0.,24.0,0.,24.0,0.,24.0
1980-11-13 18:21:34.860 ,1,1,0.,24.0,0.,24.0,0.,24.0,0.,24.0
1980-11-13 18:21:58.860 ,1,0,0.,24.0,0.,24.0,0.,24.0,0.,24.0
1980-11-13 18:22:22.860 ,2,1,0.,24.0,0.,24.0,0.,24.0,0.,24.0
1980-11-13 18:22:46.860 ,2,0,0.,24.0,0.,24.0,0.,24.0,0.,24.0
1980-11-13 18:23:10.860 ,3,1,0.,24.0,0.,24.0,0.,24.0,0.,24.0
1980-11-13 18:23:34.860 ,3,0,0.,24.0,0.,24.0,0.,24.0,0.,24.0
1980-11-13 18:23:58.860 ,4,1,0.,24.0,0.,24.0,0.,24.0,0.,24.0
1980-11-13 18:24:22.860 ,4,0,0.,24.0,0.,24.0,0.,24.0,0.,24.0
1980-11-13 18:24:46.860 ,5,1,0.,24.0,0.,24.0,0.,24.0,0.,24.0
1980-11-13 18:25:10.860 ,5,0,0.,24.0,0.,24.0,0.,24.0,0.,24.0
1980-11-13 18:25:34.860 ,6,1,0.,24.0,0.,24.0,0.,24.0,0.,24.0
1980-11-13 18:25:58.860 ,6,0,0.,24.0,0.,24.0,0.,24.0,0.,24.0
1980-11-13 18:26:22.860 ,7,1,2.,24.0,0.,24.0,0.,24.0,0.,24.0
1980-11-13 18:26:46.860 ,7,0,10.,24.0,0.,24.0,0.,24.0,0.,24.0
1980-11-13 18:27:10.860 ,7,1,11.,24.0,0.,24.0,0.,24.0,0.,24.0
1980-11-13 18:27:34.860 ,7,0,10.,24.0,0.,24.0,0.,24.0,0.,24.0
1980-11-13 18:27:58.860 ,6,1,6.,24.0,0.,24.0,0.,24.0,0.,24.0
1980-11-13 18:28:22.860 ,6,0,1.,24.0,0.,24.0,0.,24.0,0.,24.0
1980-11-13 18:28:46.860 ,5,1,0.,24.0,0.,24.0,0.,24.0,0.,24.0
1980-11-13 18:29:10.860 ,0,0,0.,24.0,0.,24.0,0.,24.0,0.,24.0
1980-11-13 18:30:43.260 ,0,0,,0,,0,,0,,0
1980-11-13 18:30:46.860 ,0,0,0.,24.0,0.,24.0,0.,24.0,0.,24.0
1980-11-13 18:31:10.860 ,2,1,0.,24.0,0.,24.0,0.,24.0,0.,24.0
1980-11-13 18:31:34.860 ,2,0,0.,24.0,0.,24.0,0.,24.0,0.,24.0
1980-11-13 18:31:58.860 ,1,1,0.,24.0,0.,24.0,0.,24.0,0.,24.0
1980-11-13 18:32:22.860 ,1,0,0.,24.0,0.,24.0,0.,24.0,0.,24.0
1980-11-13 18:32:46.860 ,0,1,0.,24.0,0.,24.0,0.,24.0,0.,24.0
1980-11-13 18:33:10.860 ,0,0,0.,24.0,0.,24.0,0.,24.0,0.,24.0
1980-11-13 18:33:34.860 ,0,1,0.,24.0,0.,24.0,0.,24.0,0.,24.0
1980-11-13 18:33:58.860 ,0,0,0.,24.0,0.,24.0,0.,24.0,0.,24.0
1980-11-13 18:34:22.860 ,1,1,0.,24.0,0.,24.0,0.,24.0,0.,24.0
1980-11-13 18:34:46.860 ,1,0,0.,24.0,0.,24.0,0.,24.0,0.,24.0
1980-11-13 18:35:10.860 ,2,1,0.,24.0,0.,24.0,0.,24.0,0.,24.0
1980-11-13 18:35:34.860 ,2,0,0.,24.0,0.,24.0,0.,24.0,0.,24.0
1980-11-13 18:35:58.860 ,3,1,0.,24.0,0.,24.0,0.,24.0,0.,24.0
1980-11-13 18:36:22.860 ,3,0,0.,24.0,0.,24.0,0.,24.0,0.,24.0
1980-11-13 18:36:46.860 ,4,1,0.,24.0,0.,24.0,0.,24.0,0.,24.0
1980-11-13 18:37:10.860 ,4,0,0.,24.0,0.,24.0,0.,24.0,0.,24.0
1980-11-13 18:37:34.860 ,5,1,0.,24.0,0.,24.0,0.,24.0,0.,24.0
1980-11-13 18:37:58.860 ,5,0,0.,24.0,0.,24.0,0.,24.0,0.,24.0
1980-11-13 18:38:22.860 ,6,1,0.,24.0,0.,24.0,0.,24.0,0.,24.0
1980-11-13 18:38:46.860 ,6,0,0.,24.0,0.,24.0,0.,24.0,0.,24.0
1980-11-13 18:39:10.860 ,7,1,2.,24.0,0.,24.0,0.,24.0,0.,24.0
1980-11-13 18:39:34.860 ,7,0,7.,24.0,0.,24.0,0.,24.0,0.,24.0
1980-11-13 18:39:58.860 ,7,1,14.,24.0,0.,24.0,0.,24.0,0.,24.0
1980-11-13 18:40:22.860 ,7,0,5.,24.0,0.,24.0,0.,24.0,0.,24.0
1980-11-13 18:40:46.860 ,6,1,10.,24.0,0.,24.0,0.,24.0,0.,24.0
1980-11-13 18:41:10.860 ,6,0,0.,24.0,0.,24.0,0.,24.0,0.,24.0
1980-11-13 18:41:34.860 ,5,1,0.,24.0,0.,24.0,0.,24.0,0.,24.0
1980-11-13 18:41:58.860 ,5,0,1.,24.0,0.,24.0,0.,24.0,0.,24.0
1980-11-13 18:42:22.860 ,4,1,0.,24.0,0.,24.0,0.,24.0,0.,24.0
1980-11-13 18:42:46.860 ,4,0,0.,24.0,0.,24.0,0.,24.0,0.,24.0
1980-11-13 18:43:10.860 ,3,1,0.,24.0,0.,24.0,0.,24.0,0.,24.0
1980-11-13 18:43:34.860 ,3,0,0.,24.0,0.,24.0,0.,24.0,0.,24.0
1980-11-13 18:43:58.860 ,2,1,0.,24.0,0.,24.0,0.,24.0,0.,24.0
1980-11-13 18:44:22.860 ,2,0,0.,24.0,0.,24.0,0.,24.0,0.,24.0
1980-11-13 18:44:46.860 ,1,1,0.,24.0,0.,24.0,0.,24.0,0.,24.0
1980-11-13 18:45:10.860 ,1,0,0.,24.0,0.,24.0,0.,24.0,0.,24.0
1980-11-13 18:45:34.860 ,0,1,1.,24.0,0.,24.0,0.,24.0,0.,24.0
1980-11-13 18:45:58.860 ,0,0,0.,24.0,0.,24.0,0.,24.0,0.,24.0
1980-11-13 18:46:22.860 ,0,1,0.,24.0,0.,24.0,0.,24.0,0.,24.0
1980-11-13 18:46:46.860 ,0,0,0.,24.0,0.,24.0,0.,24.0,0.,24.0
1980-11-13 18:47:10.860 ,1,1,0.,24.0,0.,24.0,0.,24.0,0.,24.0
1980-11-13 18:47:34.860 ,1,0,0.,24.0,0.,24.0,0.,24.0,0.,24.0
1980-11-13 18:47:58.860 ,2,1,0.,24.0,0.,24.0,0.,24.0,0.,24.0
1980-11-13 18:48:22.860 ,2,0,0.,24.0,0.,24.0,0.,24.0,0.,24.0
1980-11-13 18:48:46.860 ,3,1,0.,24.0,0.,24.0,0.,24.0,0.,24.0
1980-11-13 18:49:10.860 ,3,0,0.,24.0,0.,24.0,0.,24.0,0.,24.0
1980-11-13 18:49:34.860 ,4,1,0.,24.0,0.,24.0,0.,24.0,0.,24.0
1980-11-13 18:49:58.860 ,4,0,0.,24.0,0.,24.0,0.,24.0,0.,24.0
1980-11-13 18:50:22.860 ,5,1,0.,24.0,0.,24.0,0.,24.0,0.,24.0
1980-11-13 18:50:46.860 ,5,0,0.,24.0,0.,24.0,0.,24.0,0.,24.0
1980-11-13 18:51:10.860 ,6,1,0.,24.0,0.,24.0,0.,24.0,0.,24.0
1980-11-13 18:51:34.860 ,6,0,0.,24.0,0.,24.0,0.,24.0,0.,24.0
1980-11-13 18:51:58.860 ,7,1,3.,24.0,0.,24.0,0.,24.0,0.,24.0
1980-11-13 18:52:22.860 ,7,0,11.,24.0,0.,24.0,0.,24.0,0.,24.0
1980-11-13 18:52:46.860 ,7,1,8.,24.0,0.,24.0,0.,24.0,0.,24.0
1980-11-13 18:53:10.860 ,7,0,11.,24.0,0.,24.0,0.,24.0,0.,24.0
1980-11-13 18:53:34.860 ,6,1,7.,24.0,0.,24.0,0.,24.0,0.,24.0
1980-11-13 18:53:58.860 ,6,0,0.,24.0,0.,24.0,0.,24.0,0.,24.0
1980-11-13 18:54:22.860 ,5,1,0.,24.0,0.,24.0,0.,24.0,0.,24.0
1980-11-13 18:54:46.860 ,5,0,0.,24.0,0.,24.0,0.,24.0,0.,24.0
1980-11-13 18:55:10.860 ,4,1,0.,24.0,0.,24.0,0.,24.0,0.,24.0
1980-11-13 18:55:34.860 ,4,0,0.,24.0,0.,24.0,0.,24.0,0.,24.0
1980-11-13 18:55:58.860 ,3,1,0.,24.0,0.,24.0,0.,24.0,0.,24.0
1980-11-13 18:56:22.860 ,3,0,0.,24.0,0.,24.0,0.,24.0,0.,24.0
1980-11-13 18:56:46.860 ,2,1,0.,24.0,0.,24.0,0.,24.0,0.,24.0
1980-11-13 18:57:10.860 ,2,0,0.,24.0,0.,24.0,0.,24.0,0.,24.0
1980-11-13 18:57:34.860 ,1,1,0.,24.0,0.,24.0,0.,24.0,0.,24.0
1980-11-13 18:57:58.860 ,1,0,0.,24.0,0.,24.0,0.,24.0,0.,24.0
1980-11-13 18:58:22.860 ,0,1,0.,24.0,0.,24.0,0.,24.0,0.,24.0
1980-11-13 18:58:46.860 ,0,0,0.,24.0,0.,24.0,0.,24.0,0.,24.0
1980-11-13 18:59:10.860 ,0,1,0.,24.0,0.,24.0,0.,24.0,0.,24.0
1980-11-13 18:59:34.860 ,0,0,0.,24.0,0.,24.0,0.,24.0,0.,24.0
1980-11-13 18:59:58.860 ,1,1,0.,24.0,0.,24.0,0.,24.0,0.,24.0
1980-11-13 19:00:22.860 ,1,0,0.,24.0,0.,24.0,0.,24.0,0.,24.0
1980-11-13 19:00:46.860 ,2,1,0.,24.0,0.,24.0,0.,24.0,0.,24.0
1980-11-13 19:01:10.860 ,2,0,0.,24.0,0.,24.0,0.,24.0,0.,24.0
1980-11-13 19:01:34.860 ,3,1,0.,24.0,0.,24.0,0.,24.0,0.,24.0
1980-11-13 19:01:58.860 ,3,0,0.,24.0,0.,24.0,0.,24.0,0.,24.0
1980-11-13 19:02:22.860 ,4,1,0.,24.0,0.,24.0,0.,24.0,0.,24.0
1980-11-13 19:02:46.860 ,4,0,0.,24.0,0.,24.0,0.,24.0,0.,24.0
1980-11-13 19:03:10.860 ,5,1,0.,24.0,0.,24.0,0.,24.0,0.,24.0
1980-11-13 19:03:34.860 ,5,0,0.,24.0,0.,24.0,0.,24.0,0.,24.0
1980-11-13 19:03:58.860 ,6,1,0.,24.0,0.,24.0,0.,24.0,0.,24.0
1980-11-13 19:04:22.860 ,6,0,0.,24.0,0.,24.0,0.,24.0,0.,24.0
1980-11-13 19:04:46.860 ,7,1,2.,24.0,0.,24.0,0.,24.0,0.,24.0
1980-11-13 19:05:10.860 ,7,0,10.,24.0,0.,24.0,0.,24.0,0.,24.0
1980-11-13 19:05:34.860 ,7,1,7.,24.0,0.,24.0,0.,24.0,0.,24.0
1980-11-13 19:05:58.860 ,7,0,8.,24.0,0.,24.0,0.,24.0,0.,24.0
1980-11-13 19:06:22.860 ,6,1,7.,24.0,0.,24.0,0.,24.0,0.,24.0
1980-11-13 19:06:46.860 ,6,0,0.,24.0,0.,24.0,0.,24.0,0.,24.0
1980-11-13 19:07:10.860 ,5,1,0.,24.0,0.,24.0,0.,24.0,0.,24.0
1980-11-13 19:07:34.860 ,5,0,0.,24.0,0.,24.0,0.,24.0,0.,24.0
1980-11-13 19:07:58.860 ,4,1,0.,24.0,0.,24.0,0.,24.0,0.,24.0
1980-11-13 19:08:22.860 ,4,0,0.,24.0,0.,24.0,0.,24.0,0.,24.0
1980-11-13 19:08:46.860 ,3,1,0.,24.0,0.,24.0,0.,24.0,0.,24.0
1980-11-13 19:09:10.860 ,3,0,0.,24.0,0.,24.0,0.,24.0,0.,24.0
1980-11-13 19:09:34.860 ,2,1,0.,24.0,0.,24.0,0.,24.0,0.,24.0
1980-11-13 19:09:58.860 ,2,0,0.,24.0,0.,24.0,0.,24.0,0.,24.0
1980-11-13 19:10:22.860 ,1,1,0.,24.0,0.,24.0,0.,24.0,0.,24.0
1980-11-13 19:10:46.860 ,1,0,0.,24.0,0.,24.0,0.,24.0,0.,24.0
1980-11-13 19:11:10.860 ,0,1,0.,24.0,0.,24.0,0.,24.0,0.,24.0
1980-11-13 19:11:34.860 ,0,0,0.,24.0,0.,24.0,0.,24.0,0.,24.0
1980-11-13 19:11:58.860 ,0,1,0.,24.0,0.,24.0,0.,24.0,0.,24.0
1980-11-13 19:12:22.860 ,0,0,0.,24.0,0.,24.0,0.,24.0,0.,24.0
1980-11-13 19:12:46.860 ,1,1,0.,24.0,0.,24.0,0.,24.0,0.,24.0
1980-11-13 19:13:10.860 ,1,0,0.,24.0,0.,24.0,0.,24.0,0.,24.0
1980-11-13 19:13:34.860 ,2,1,0.,24.0,0.,24.0,0.,24.0,0.,24.0
1980-11-13 19:13:58.860 ,2,0,0.,24.0,0.,24.0,0.,24.0,0.,24.0
1980-11-13 19:14:22.860 ,3,1,0.,24.0,0.,24.0,0.,24.0,0.,24.0
1980-11-13 19:14:46.860 ,3,0,0.,24.0,0.,24.0,0.,24.0,0.,24.0
1980-11-13 19:15:10.860 ,4,1,0.,24.0,0.,24.0,0.,24.0,0.,24.0
1980-11-13 19:15:34.860 ,4,0,0.,24.0,0.,24.0,0.,24.0,0.,24.0
1980-11-13 19:15:58.860 ,5,1,0.,24.0,0.,24.0,0.,24.0,0.,24.0
1980-11-13 19:16:22.860 ,5,0,0.,24.0,0.,24.0,0.,24.0,0.,24.0
1980-11-13 19:16:46.860 ,6,1,0.,24.0,0.,24.0,0.,24.0,0.,24.0
1980-11-13 19:17:10.860 ,6,0,0.,24.0,0.,24.0,0.,24.0,0.,24.0
1980-11-13 19:17:34.860 ,7,1,3.,24.0,0.,24.0,0.,24.0,0.,24.0
1980-11-13 19:17:58.860 ,7,0,7.,24.0,0.,24.0,0.,24.0,0.,24.0
1980-11-13 19:18:22.860 ,7,1,8.,24.0,0.,24.0,0.,24.0,0.,24.0
1980-11-13 19:18:46.860 ,7,0,10.,24.0,0.,24.0,0.,24.0,0.,24.0
1980-11-13 19:19:10.860 ,6,1,7.,24.0,0.,24.0,0.,24.0,0.,24.0
1980-11-13 19:19:34.860 ,6,0,0.,24.0,0.,24.0,0.,24.0,0.,24.0
1980-11-13 19:19:58.860 ,5,1,0.,24.0,0.,24.0,0.,24.0,0.,24.0
1980-11-13 19:20:22.860 ,5,0,0.,24.0,0.,24.0,0.,24.0,0.,24.0
1980-11-13 19:20:46.860 ,4,1,0.,24.0,0.,24.0,0.,24.0,0.,24.0
1980-11-13 19:21:10.860 ,4,0,0.,24.0,0.,24.0,0.,24.0,0.,24.0
1980-11-13 19:21:34.860 ,3,1,0.,24.0,0.,24.0,0.,24.0,0.,24.0
1980-11-13 19:21:58.860 ,3,0,0.,24.0,0.,24.0,0.,24.0,0.,24.0
1980-11-13 19:22:22.860 ,2,1,0.,24.0,0.,24.0,0.,24.0,0.,24.0
1980-11-13 19:22:46.860 ,2,0,0.,24.0,0.,24.0,0.,24.0,0.,24.0
1980-11-13 19:23:10.860 ,1,1,0.,24.0,0.,24.0,0.,24.0,0.,24.0
1980-11-13 19:23:34.860 ,1,0,0.,24.0,0.,24.0,0.,24.0,0.,24.0
1980-11-13 19:23:58.860 ,0,1,0.,24.0,0.,24.0,0.,24.0,0.,24.0
1980-11-13 19:24:22.860 ,0,0,0.,24.0,0.,24.0,0.,24.0,0.,24.0
1980-11-13 19:24:46.860 ,0,1,0.,24.0,0.,24.0,0.,24.0,0.,24.0
1980-11-13 19:25:10.860 ,0,0,0.,24.0,0.,24.0,0.,24.0,0.,24.0
1980-11-13 19:25:34.860 ,1,1,0.,24.0,0.,24.0,0.,24.0,0.,24.0
1980-11-13 19:25:58.860 ,1,0,0.,24.0,0.,24.0,0.,24.0,0.,24.0
1980-11-13 19:26:22.860 ,2,1,0.,24.0,0.,24.0,0.,24.0,0.,24.0
1980-11-13 19:26:46.860 ,2,0,0.,24.0,0.,24.0,0.,24.0,0.,24.0
1980-11-13 19:27:10.860 ,3,1,0.,24.0,0.,24.0,0.,24.0,0.,24.0
1980-11-13 19:27:34.860 ,3,0,0.,24.0,0.,24.0,0.,24.0,0.,24.0
1980-11-13 19:27:58.860 ,4,1,0.,24.0,0.,24.0,0.,24.0,0.,24.0
1980-11-13 19:28:22.860 ,4,0,0.,24.0,0.,24.0,0.,24.0,0.,24.0
1980-11-13 19:28:46.860 ,5,1,0.,24.0,0.,24.0,0.,24.0,0.,24.0
1980-11-13 19:29:10.860 ,5,0,0.,24.0,0.,24.0,0.,24.0,0.,24.0
1980-11-13 19:29:34.860 ,6,1,0.,24.0,0.,24.0,0.,24.0,0.,24.0
1980-11-13 19:29:58.860 ,0,0,0.,24.0,0.,24.0,0.,24.0,0.,24.0
1980-11-13 19:30:34.860 ,0,0,,0,,0,,0,,0
1980-11-13 19:30:46.860 ,0,0,8.,24.0,0.,24.0,0.,24.0,0.,24.0
1980-11-13 19:31:10.260 ,0,0,,0,,0,,0,,0
1980-11-13 19:31:10.260 ,0,0,,0,,0,,0,,0
1980-11-13 19:31:10.860 ,7,1,7.,24.0,0.,24.0,0.,24.0,0.,24.0
1980-11-13 19:31:34.860 ,7,0,10.,24.0,0.,24.0,0.,24.0,0.,24.0
1980-11-13 19:31:58.860 ,6,1,6.,24.0,0.,24.0,0.,24.0,0.,24.0
1980-11-13 19:32:22.860 ,6,0,0.,24.0,0.,24.0,0.,24.0,0.,24.0
1980-11-13 19:32:46.860 ,5,1,1.,24.0,0.,24.0,0.,24.0,0.,24.0
1980-11-13 19:33:10.860 ,5,0,0.,24.0,0.,24.0,0.,24.0,0.,24.0
1980-11-13 19:33:34.860 ,4,1,0.,24.0,0.,24.0,0.,24.0,0.,24.0
1980-11-13 19:33:58.860 ,4,0,0.,24.0,0.,24.0,0.,24.0,0.,24.0
1980-11-13 19:34:22.860 ,3,1,0.,24.0,0.,24.0,0.,24.0,0.,24.0
1980-11-13 19:34:46.860 ,3,0,0.,24.0,0.,24.0,0.,24.0,0.,24.0
1980-11-13 19:35:10.860 ,2,1,0.,24.0,0.,24.0,0.,24.0,0.,24.0
1980-11-13 19:35:34.860 ,2,0,0.,24.0,0.,24.0,0.,24.0,0.,24.0
1980-11-13 19:35:58.860 ,1,1,0.,24.0,0.,24.0,0.,24.0,0.,24.0
1980-11-13 19:36:22.860 ,1,0,0.,24.0,0.,24.0,0.,24.0,0.,24.0
1980-11-13 19:36:46.860 ,0,1,0.,24.0,0.,24.0,0.,24.0,0.,24.0
1980-11-13 19:37:10.860 ,0,0,0.,24.0,0.,24.0,0.,24.0,0.,24.0
1980-11-13 19:37:34.860 ,0,1,0.,24.0,0.,24.0,0.,24.0,0.,24.0
1980-11-13 19:37:58.860 ,0,0,0.,24.0,0.,24.0,0.,24.0,0.,24.0
1980-11-13 19:38:22.860 ,1,1,0.,24.0,0.,24.0,0.,24.0,0.,24.0
1980-11-13 19:38:46.860 ,1,0,0.,24.0,0.,24.0,0.,24.0,0.,24.0
1980-11-13 19:39:10.860 ,2,1,0.,24.0,0.,24.0,0.,24.0,0.,24.0
1980-11-13 19:39:34.860 ,2,0,0.,24.0,0.,24.0,0.,24.0,0.,24.0
1980-11-13 19:39:58.860 ,3,1,0.,24.0,0.,24.0,0.,24.0,0.,24.0
1980-11-13 19:40:22.860 ,3,0,0.,24.0,0.,24.0,0.,24.0,0.,24.0
1980-11-13 19:40:46.860 ,4,1,0.,24.0,0.,24.0,0.,24.0,0.,24.0
1980-11-13 19:41:10.860 ,4,0,0.,24.0,0.,24.0,0.,24.0,0.,24.0
1980-11-13 19:41:34.860 ,5,1,0.,24.0,0.,24.0,0.,24.0,0.,24.0
1980-11-13 19:41:58.860 ,5,0,0.,24.0,0.,24.0,0.,24.0,0.,24.0
1980-11-13 19:42:22.860 ,6,1,0.,24.0,0.,24.0,0.,24.0,0.,24.0
1980-11-13 19:42:46.860 ,6,0,0.,24.0,0.,24.0,0.,24.0,0.,24.0
1980-11-13 19:43:10.860 ,7,1,4.,24.0,0.,24.0,0.,24.0,0.,24.0
1980-11-13 19:43:34.860 ,7,0,6.,24.0,0.,24.0,0.,24.0,0.,24.0
1980-11-13 19:43:58.860 ,7,1,10.,24.0,0.,24.0,0.,24.0,0.,24.0
1980-11-13 19:44:22.860 ,7,0,10.,24.0,0.,24.0,0.,24.0,0.,24.0
1980-11-13 19:44:46.860 ,6,1,10.,24.0,0.,24.0,0.,24.0,0.,24.0
1980-11-13 19:45:10.860 ,6,0,0.,24.0,0.,24.0,0.,24.0,0.,24.0
1980-11-13 19:45:34.860 ,5,1,0.,24.0,0.,24.0,0.,24.0,0.,24.0
1980-11-13 19:45:58.860 ,5,0,0.,24.0,0.,24.0,0.,24.0,0.,24.0
1980-11-13 19:46:22.860 ,4,1,0.,24.0,0.,24.0,0.,24.0,0.,24.0
1980-11-13 19:46:46.860 ,4,0,0.,24.0,0.,24.0,0.,24.0,0.,24.0
1980-11-13 19:47:10.860 ,3,1,0.,24.0,0.,24.0,0.,24.0,0.,24.0
1980-11-13 19:47:34.860 ,3,0,0.,24.0,0.,24.0,0.,24.0,0.,24.0
1980-11-13 19:47:58.860 ,2,1,0.,24.0,0.,24.0,0.,24.0,0.,24.0
1980-11-13 19:48:22.860 ,2,0,0.,24.0,0.,24.0,0.,24.0,0.,24.0
1980-11-13 19:48:46.860 ,1,1,0.,24.0,0.,24.0,0.,24.0,0.,24.0
1980-11-13 19:49:10.860 ,1,0,0.,24.0,0.,24.0,0.,24.0,0.,24.0
1980-11-13 19:49:34.860 ,0,1,0.,24.0,0.,24.0,0.,24.0,0.,24.0
1980-11-13 19:49:58.860 ,0,0,0.,24.0,0.,24.0,0.,24.0,0.,24.0
1980-11-13 19:50:22.860 ,0,1,0.,24.0,0.,24.0,0.,24.0,0.,24.0
1980-11-13 19:50:46.860 ,0,0,0.,24.0,0.,24.0,0.,24.0,0.,24.0
1980-11-13 19:51:10.860 ,1,1,1.,24.0,0.,24.0,0.,24.0,0.,24.0
1980-11-13 19:51:34.860 ,1,0,0.,24.0,0.,24.0,0.,24.0,0.,24.0
1980-11-13 19:51:58.860 ,2,1,0.,24.0,0.,24.0,0.,24.0,0.,24.0
1980-11-13 19:52:22.860 ,2,0,0.,24.0,0.,24.0,0.,24.0,0.,24.0
1980-11-13 19:52:46.860 ,3,1,0.,24.0,0.,24.0,0.,24.0,0.,24.0
1980-11-13 19:53:10.860 ,3,0,0.,24.0,0.,24.0,0.,24.0,0.,24.0
1980-11-13 19:53:34.860 ,4,1,0.,24.0,0.,24.0,0.,24.0,0.,24.0
1980-11-13 19:53:58.860 ,4,0,0.,24.0,0.,24.0,0.,24.0,0.,24.0
1980-11-13 19:54:22.860 ,5,1,0.,24.0,0.,24.0,0.,24.0,0.,24.0
1980-11-13 19:54:46.860 ,5,0,0.,24.0,0.,24.0,0.,24.0,0.,24.0
1980-11-13 19:55:10.860 ,6,1,0.,24.0,0.,24.0,0.,24.0,0.,24.0
1980-11-13 19:55:34.860 ,6,0,0.,24.0,0.,24.0,0.,24.0,0.,24.0
1980-11-13 19:55:58.860 ,7,1,0.,24.0,0.,24.0,0.,24.0,0.,24.0
1980-11-13 19:56:22.860 ,7,0,13.,24.0,0.,24.0,0.,24.0,0.,24.0
1980-11-13 19:56:46.860 ,7,1,9.,24.0,0.,24.0,0.,24.0,0.,24.0
1980-11-13 19:57:10.860 ,7,0,7.,24.0,0.,24.0,0.,24.0,0.,24.0
1980-11-13 19:57:34.860 ,6,1,6.,24.0,0.,24.0,0.,24.0,0.,24.0
1980-11-13 19:57:58.860 ,6,0,0.,24.0,0.,24.0,0.,24.0,0.,24.0
1980-11-13 19:58:22.860 ,5,1,0.,24.0,0.,24.0,0.,24.0,0.,24.0
1980-11-13 19:58:46.860 ,5,0,0.,24.0,0.,24.0,0.,24.0,0.,24.0
1980-11-13 19:59:10.860 ,4,1,0.,24.0,0.,24.0,0.,24.0,0.,24.0
1980-11-13 19:59:34.860 ,4,0,0.,24.0,0.,24.0,0.,24.0,0.,24.0
1980-11-13 19:59:58.860 ,3,1,0.,24.0,0.,24.0,0.,24.0,0.,24.0
1980-11-13 20:00:22.860 ,3,0,0.,24.0,0.,24.0,0.,24.0,0.,24.0
1980-11-13 20:00:46.860 ,2,1,0.,24.0,0.,24.0,0.,24.0,0.,24.0
1980-11-13 20:01:10.860 ,2,0,0.,24.0,0.,24.0,0.,24.0,0.,24.0
1980-11-13 20:01:34.860 ,1,1,0.,24.0,0.,24.0,0.,24.0,0.,24.0
1980-11-13 20:01:58.860 ,1,0,0.,24.0,0.,24.0,0.,24.0,0.,24.0
1980-11-13 20:02:22.860 ,0,1,0.,24.0,0.,24.0,0.,24.0,0.,24.0
1980-11-13 20:02:46.860 ,0,0,0.,24.0,0.,24.0,0.,24.0,0.,24.0
1980-11-13 20:03:10.860 ,0,1,0.,24.0,0.,24.0,0.,24.0,0.,24.0
1980-11-13 20:03:34.860 ,0,0,0.,24.0,0.,24.0,0.,24.0,0.,24.0
1980-11-13 20:03:58.860 ,1,1,0.,24.0,0.,24.0,0.,24.0,0.,24.0
1980-11-13 20:04:22.860 ,1,0,0.,24.0,0.,24.0,0.,24.0,0.,24.0
1980-11-13 20:04:46.860 ,2,1,0.,24.0,0.,24.0,0.,24.0,0.,24.0
1980-11-13 20:05:10.860 ,2,0,0.,24.0,0.,24.0,0.,24.0,0.,24.0
1980-11-13 20:05:34.860 ,3,1,0.,24.0,0.,24.0,0.,24.0,0.,24.0
1980-11-13 20:05:58.860 ,3,0,0.,24.0,0.,24.0,0.,24.0,0.,24.0
1980-11-13 20:06:22.860 ,4,1,0.,24.0,0.,24.0,0.,24.0,0.,24.0
1980-11-13 20:06:46.860 ,4,0,0.,24.0,0.,24.0,0.,24.0,0.,24.0
1980-11-13 20:07:10.860 ,5,1,0.,24.0,0.,24.0,0.,24.0,0.,24.0
1980-11-13 20:07:34.860 ,5,0,0.,24.0,0.,24.0,0.,24.0,0.,24.0
1980-11-13 20:07:58.860 ,6,1,0.,24.0,0.,24.0,0.,24.0,0.,24.0
1980-11-13 20:08:22.860 ,6,0,0.,24.0,0.,24.0,0.,24.0,0.,24.0
1980-11-13 20:08:46.860 ,7,1,1.,24.0,0.,24.0,0.,24.0,0.,24.0
1980-11-13 20:09:10.860 ,7,0,9.,24.0,0.,24.0,0.,24.0,0.,24.0
1980-11-13 20:09:34.860 ,7,1,9.,24.0,0.,24.0,0.,24.0,0.,24.0
1980-11-13 20:09:58.860 ,7,0,9.,24.0,0.,24.0,0.,24.0,0.,24.0
1980-11-13 20:10:22.860 ,6,1,11.,24.0,0.,24.0,0.,24.0,0.,24.0
1980-11-13 20:10:46.860 ,6,0,0.,24.0,0.,24.0,0.,24.0,0.,24.0
1980-11-13 20:11:10.860 ,5,1,0.,24.0,0.,24.0,0.,24.0,0.,24.0
1980-11-13 20:11:34.860 ,5,0,0.,24.0,0.,24.0,0.,24.0,0.,24.0
1980-11-13 20:11:58.860 ,4,1,0.,24.0,0.,24.0,0.,24.0,0.,24.0
1980-11-13 20:12:22.860 ,4,0,0.,24.0,0.,24.0,0.,24.0,0.,24.0
1980-11-13 20:12:46.860 ,3,1,0.,24.0,0.,24.0,0.,24.0,0.,24.0
1980-11-13 20:13:10.860 ,3,0,,0,,0,,0,,0
1980-11-13 20:13:34.860 ,2,1,0.,24.0,0.,24.0,0.,24.0,0.,24.0
1980-11-13 20:13:58.860 ,2,0,0.,24.0,0.,24.0,0.,24.0,0.,24.0
1980-11-13 20:14:22.860 ,1,1,0.,24.0,0.,24.0,0.,24.0,0.,24.0
1980-11-13 20:14:46.860 ,1,0,0.,24.0,0.,24.0,0.,24.0,0.,24.0
1980-11-13 20:15:10.860 ,0,1,0.,24.0,0.,24.0,0.,24.0,0.,24.0
1980-11-13 20:15:34.860 ,0,0,0.,24.0,0.,24.0,0.,24.0,0.,24.0
1980-11-13 20:15:58.860 ,0,1,0.,24.0,0.,24.0,0.,24.0,0.,24.0
1980-11-13 20:16:22.860 ,0,0,0.,24.0,0.,24.0,0.,24.0,0.,24.0
1980-11-13 20:16:46.860 ,1,1,0.,24.0,0.,24.0,0.,24.0,0.,24.0
1980-11-13 20:17:10.860 ,1,0,0.,24.0,0.,24.0,0.,24.0,0.,24.0
1980-11-13 20:17:34.860 ,2,1,0.,24.0,0.,24.0,0.,24.0,0.,24.0
1980-11-13 20:17:58.860 ,2,0,0.,24.0,0.,24.0,0.,24.0,0.,24.0
1980-11-13 20:18:22.860 ,3,1,0.,24.0,0.,24.0,0.,24.0,0.,24.0
1980-11-13 20:18:46.860 ,3,0,0.,24.0,0.,24.0,0.,24.0,0.,24.0
1980-11-13 20:19:10.860 ,4,1,0.,24.0,0.,24.0,0.,24.0,0.,24.0
1980-11-13 20:19:34.860 ,0,0,0.,24.0,0.,24.0,0.,24.0,0.,24.0
1980-11-13 20:19:58.860 ,5,1,0.,24.0,0.,24.0,0.,24.0,0.,24.0
1980-11-13 20:20:22.860 ,5,0,0.,24.0,0.,24.0,0.,24.0,0.,24.0
1980-11-13 20:20:46.860 ,6,1,0.,24.0,0.,24.0,0.,24.0,0.,24.0
1980-11-13 20:21:10.860 ,6,0,0.,24.0,0.,24.0,0.,24.0,0.,24.0
1980-11-13 20:21:34.860 ,7,1,5.,24.0,0.,24.0,0.,24.0,0.,24.0
1980-11-13 20:21:58.860 ,7,0,6.,24.0,0.,24.0,0.,24.0,0.,24.0
1980-11-13 20:22:22.860 ,7,1,13.,24.0,0.,24.0,0.,24.0,0.,24.0
1980-11-13 20:22:46.860 ,7,0,7.,24.0,0.,24.0,0.,24.0,0.,24.0
1980-11-13 20:23:10.860 ,6,1,5.,24.0,0.,24.0,0.,24.0,0.,24.0
1980-11-13 20:23:34.860 ,6,0,0.,24.0,0.,24.0,0.,24.0,0.,24.0
1980-11-13 20:23:58.860 ,5,1,0.,24.0,0.,24.0,0.,24.0,0.,24.0
1980-11-13 20:24:22.860 ,5,0,0.,24.0,0.,24.0,0.,24.0,0.,24.0
1980-11-13 20:24:46.860 ,4,1,0.,24.0,0.,24.0,0.,24.0,0.,24.0
1980-11-13 20:25:10.860 ,4,0,0.,24.0,0.,24.0,0.,24.0,0.,24.0
1980-11-13 20:25:34.860 ,3,1,0.,24.0,0.,24.0,0.,24.0,0.,24.0
1980-11-13 20:25:58.860 ,3,0,0.,24.0,0.,24.0,0.,24.0,0.,24.0
1980-11-13 20:26:22.860 ,2,1,0.,24.0,0.,24.0,0.,24.0,0.,24.0
1980-11-13 20:26:46.860 ,2,0,0.,24.0,0.,24.0,0.,24.0,0.,24.0
1980-11-13 20:27:10.860 ,1,1,0.,24.0,0.,24.0,0.,24.0,0.,24.0
1980-11-13 20:27:34.860 ,1,0,0.,24.0,0.,24.0,0.,24.0,0.,24.0
1980-11-13 20:27:58.860 ,0,1,0.,24.0,0.,24.0,0.,24.0,0.,24.0
1980-11-13 20:28:22.860 ,0,0,0.,24.0,0.,24.0,0.,24.0,0.,24.0
1980-11-13 20:28:46.860 ,0,1,0.,24.0,0.,24.0,0.,24.0,0.,24.0
1980-11-13 20:29:10.860 ,0,0,0.,24.0,0.,24.0,0.,24.0,0.,24.0
1980-11-13 20:29:34.860 ,1,1,0.,24.0,0.,24.0,0.,24.0,0.,24.0
1980-11-13 20:29:58.860 ,1,0,0.,24.0,0.,24.0,0.,24.0,0.,24.0
1980-11-13 20:30:22.860 ,2,1,0.,24.0,0.,24.0,0.,24.0,0.,24.0
1980-11-13 20:30:46.860 ,2,0,0.,24.0,0.,24.0,0.,24.0,0.,24.0
1980-11-13 20:31:10.860 ,3,1,0.,24.0,0.,24.0,0.,24.0,0.,24.0
1980-11-13 20:31:34.860 ,3,0,0.,24.0,0.,24.0,0.,24.0,0.,24.0
1980-11-13 20:31:58.860 ,4,1,0.,24.0,0.,24.0,0.,24.0,0.,24.0
1980-11-13 20:32:22.860 ,4,0,0.,24.0,0.,24.0,0.,24.0,0.,24.0
1980-11-13 20:32:46.860 ,5,1,0.,24.0,0.,24.0,0.,24.0,0.,24.0
1980-11-13 20:33:10.860 ,5,0,0.,24.0,0.,24.0,0.,24.0,0.,24.0
1980-11-13 20:33:34.860 ,6,1,1.,24.0,0.,24.0,0.,24.0,0.,24.0
1980-11-13 20:33:58.860 ,6,0,0.,24.0,0.,24.0,0.,24.0,0.,24.0
1980-11-13 20:34:22.860 ,7,1,2.,24.0,0.,24.0,0.,24.0,0.,24.0
1980-11-13 20:34:46.860 ,7,0,12.,24.0,0.,24.0,0.,24.0,0.,24.0